Location: East Guldeford
(50.9500°N, 0.7500°E)
Time: 09:42:26
(UTC+00:00)

Cosmos 1048 Rocket - Pass Details

Date: 12 May 2021
Orbit: 743 x 791 km, 74.0° (Epoch: 16 June)

Event Time Altitude Azimuth Distance (km) Brightness Sun altitude
Rises 23:19:38 0° 334° (NNW) 3,287 8.6 -20.3°
Reaches altitude 10° 23:22:03 10° 334° (NNW) 2,348 7.6 -20.3°
Maximum altitude 23:27:23 83° 248° (WSW) 787 3.9 -20.4°
Enters shadow 23:29:09 43° 165° (SSE) 1,071 4.3 -20.5°
